Location: Buckland
(65.9785°N, 161.1281°W)
Time: 06:39:08
(UTC+00:00)

A-11 Canister half - Visible Passes

Search period start: 27 November 2020 00:00
Search period end: 07 December 2020 00:00
Orbit: 1525 x 1684 km, 47.3° (Epoch: 26 November)

Date Brightness Start Highest point End Pass type
(mag) Time Alt. Az. Time Alt. Az. Time Alt. Az.
27 Nov 11.2 17:30:02 10° SSW 17:36:31 20° SSE 17:42:54 10° ESE visible
28 Nov 11.2 17:08:35 10° SSW 17:14:58 19° SSE 17:21:17 10° ESE visible
29 Nov 11.2 16:47:08 10° S 16:53:26 19° SSE 16:59:38 10° ESE visible
29 Nov 11.0 18:48:10 10° SW 18:55:46 25° S 19:03:14 10° SE visible
30 Nov 11.1 16:25:42 10° S 16:31:53 18° SSE 16:38:00 10° ESE visible
30 Nov 11.0 18:26:36 10° SW 18:34:12 25° S 18:41:40 10° ESE visible
01 Dec 11.1 16:04:16 10° S 16:10:21 18° SSE 16:16:21 10° ESE visible
01 Dec 10.9 18:05:02 10° SW 18:12:38 25° S 18:20:07 10° ESE visible
02 Dec 11.1 15:42:52 10° S 15:48:48 18° SSE 15:54:41 10° ESE visible
02 Dec 10.8 17:43:29 10° SW 17:51:05 25° S 17:58:33 10° ESE visible
03 Dec 11.0 15:21:27 10° S 15:27:16 17° SE 15:33:01 10° ESE visible
03 Dec 10.8 17:21:55 10° SW 17:29:30 25° S 17:36:59 10° ESE visible
04 Dec 11.0 15:00:04 10° S 15:05:44 17° SE 15:11:20 10° ESE visible
04 Dec 10.7 17:00:22 10° SW 17:07:57 25° S 17:15:25 10° ESE visible
04 Dec 10.9 19:03:02 10° WSW 19:10:27 24° SSW 19:17:46 10° SE visible
05 Dec 11.0 14:38:42 10° S 14:44:11 16° SE 14:49:39 10° ESE visible
05 Dec 10.7 16:38:50 10° SW 16:46:23 25° SSE 16:53:50 10° ESE visible
05 Dec 10.8 18:41:25 10° WSW 18:48:54 25° SSW 18:56:16 10° SE visible
06 Dec 11.0 14:17:26 10° S 14:22:39 16° SE 14:27:56 10° ESE visible
06 Dec 10.6 16:17:17 10° SW 16:24:49 25° SSE 16:32:14 10° ESE visible
06 Dec 10.7 18:19:47 10° WSW 18:27:21 25° SSW 18:34:46 10° SE visible
